Time,TemperatureF,DewpointF,PressureIn,WindDirection,WindDirectionDegrees,WindSpeedMPH,WindSpeedGustMPH,Humidity,HourlyPrecipIn,Conditions,Clouds,dailyrainin,SoftwareType,DateUTC
2013-06-27 00:05:00,61.7,59.0,30.02,SSE,162,4.0,8.0,92,0.00,,,0.00,weatherlink.com 1.10,2013-06-27 07:05:00,
2013-06-27 00:20:00,61.7,59.0,30.02,South,176,1.0,6.0,92,0.00,,,0.00,weatherlink.com 1.10,2013-06-27 07:20:00,
2013-06-27 00:35:00,61.4,59.0,30.02,SSE,155,4.0,5.0,92,0.00,,,0.00,weatherlink.com 1.10,2013-06-27 07:35:00,
2013-06-27 00:50:00,60.9,59.0,30.02,SSE,166,1.0,6.0,93,0.00,,,0.00,weatherlink.com 1.10,2013-06-27 07:50:00,
2013-06-27 01:05:00,60.9,59.0,30.02,SE,135,1.0,4.0,93,0.00,,,0.00,weatherlink.com 1.10,2013-06-27 08:05:00,
2013-06-27 01:20:00,60.5,59.0,30.02,SE,142,2.0,5.0,93,0.00,,,0.00,weatherlink.com 1.10,2013-06-27 08:20:00,
2013-06-27 01:35:00,60.2,58.0,30.02,SSE,163,4.0,5.0,93,0.00,,,0.00,weatherlink.com 1.10,2013-06-27 08:35:00,
2013-06-27 01:50:00,59.7,58.0,30.02,SSE,167,3.0,5.0,93,0.00,,,0.00,weatherlink.com 1.10,2013-06-27 08:50:00,
2013-06-27 02:05:00,59.1,57.0,30.02,SW,233,1.0,4.0,94,0.00,,,0.00,weatherlink.com 1.10,2013-06-27 09:05:00,
2013-06-27 02:20:00,58.8,57.0,30.03,WNW,285,3.0,4.0,94,0.00,,,0.00,weatherlink.com 1.10,2013-06-27 09:20:00,
2013-06-27 02:35:00,58.6,57.0,30.02,SW,215,1.0,3.0,95,0.00,,,0.00,weatherlink.com 1.10,2013-06-27 09:35:00,
2013-06-27 02:50:00,58.5,57.0,30.02,SSW,195,2.0,6.0,95,0.00,,,0.00,weatherlink.com 1.10,2013-06-27 09:50:00,
2013-06-27 03:05:00,58.4,57.0,30.02,SSW,198,1.0,4.0,95,0.00,,,0.00,weatherlink.com 1.10,2013-06-27 10:05:00,
2013-06-27 03:20:00,58.4,57.0,30.02,SE,131,1.0,4.0,95,0.00,,,0.00,weatherlink.com 1.10,2013-06-27 10:20:00,
2013-06-27 03:35:00,58.3,57.0,30.02,SSE,147,3.0,4.0,96,0.00,,,0.00,weatherlink.com 1.10,2013-06-27 10:35:00,
2013-06-27 03:50:00,58.6,58.0,30.02,South,170,1.0,3.0,96,0.00,,,0.00,weatherlink.com 1.10,2013-06-27 10:50:00,
2013-06-27 04:05:00,58.9,58.0,30.01,SE,131,1.0,4.0,96,0.00,,,0.00,weatherlink.com 1.10,2013-06-27 11:05:00,
2013-06-27 04:20:00,59.2,58.0,30.02,SE,145,0.0,4.0,97,0.00,,,0.00,weatherlink.com 1.10,2013-06-27 11:20:00,
2013-06-27 04:35:00,59.3,58.0,30.02,SW,228,1.0,4.0,96,0.00,,,0.00,weatherlink.com 1.10,2013-06-27 11:35:00,
2013-06-27 04:50:00,59.2,58.0,30.02,SW,229,1.0,4.0,97,0.00,,,0.00,weatherlink.com 1.10,2013-06-27 11:50:00,
2013-06-27 05:05:00,59.4,59.0,30.02,SE,137,0.0,4.0,97,0.00,,,0.00,weatherlink.com 1.10,2013-06-27 12:05:00,
2013-06-27 05:20:00,59.4,59.0,30.02,SSE,167,1.0,4.0,97,0.00,,,0.00,weatherlink.com 1.10,2013-06-27 12:20:00,
2013-06-27 05:36:00,59.5,59.0,30.02,SE,142,0.0,5.0,97,0.00,,,0.00,weatherlink.com 1.10,2013-06-27 12:36:00,
2013-06-27 05:51:00,59.5,59.0,30.03,SSE,156,2.0,3.0,97,0.00,,,0.00,weatherlink.com 1.10,2013-06-27 12:51:00,
2013-06-27 06:06:00,59.4,59.0,30.03,SSW,200,1.0,5.0,97,0.00,,,0.00,weatherlink.com 1.10,2013-06-27 13:06:00,
2013-06-27 06:21:00,59.4,59.0,30.03,ESE,108,0.0,4.0,97,0.00,,,0.00,weatherlink.com 1.10,2013-06-27 13:21:00,
2013-06-27 06:36:00,59.5,59.0,30.03,SE,145,1.0,2.0,97,0.00,,,0.00,weatherlink.com 1.10,2013-06-27 13:36:00,
2013-06-27 06:51:00,59.9,59.0,30.03,SW,229,1.0,1.0,97,0.00,,,0.00,weatherlink.com 1.10,2013-06-27 13:51:00,
2013-06-27 07:06:00,59.6,59.0,30.03,SSW,198,1.0,3.0,97,0.00,,,0.00,weatherlink.com 1.10,2013-06-27 14:06:00,
2013-06-27 07:21:00,59.9,59.0,30.04,SSW,200,0.0,3.0,97,0.00,,,0.00,weatherlink.com 1.10,2013-06-27 14:21:00,
2013-06-27 07:36:00,60.5,60.0,30.04,WSW,238,0.0,3.0,97,0.00,,,0.00,weatherlink.com 1.10,2013-06-27 14:36:00,
2013-06-27 07:51:00,61.6,61.0,30.05,ESE,120,1.0,4.0,97,0.00,,,0.00,weatherlink.com 1.10,2013-06-27 14:51:00,
2013-06-27 08:06:00,62.9,62.0,30.05,SSW,200,2.0,3.0,96,0.00,,,0.00,weatherlink.com 1.10,2013-06-27 15:06:00,
2013-06-27 08:21:00,63.8,63.0,30.05,SSW,210,1.0,4.0,96,0.00,,,0.00,weatherlink.com 1.10,2013-06-27 15:21:00,
2013-06-27 08:36:00,65.7,64.0,30.06,SSW,197,3.0,4.0,94,0.00,,,0.00,weatherlink.com 1.10,2013-06-27 15:36:00,
2013-06-27 08:51:00,67.5,64.0,30.06,East,100,3.0,3.0,89,0.00,,,0.00,weatherlink.com 1.10,2013-06-27 15:51:00,
2013-06-27 09:06:00,69.3,63.0,30.06,SW,218,2.0,2.0,81,0.00,,,0.00,weatherlink.com 1.10,2013-06-27 16:06:00,
2013-06-27 09:21:00,69.8,63.0,30.05,SW,233,4.0,4.0,80,0.00,,,0.00,weatherlink.com 1.10,2013-06-27 16:21:00,
2013-06-27 09:36:00,70.2,63.0,30.05,WNW,301,3.0,6.0,77,0.00,,,0.00,weatherlink.com 1.10,2013-06-27 16:36:00,
2013-06-27 09:51:00,70.9,63.0,30.06,South,187,3.0,4.0,77,0.00,,,0.00,weatherlink.com 1.10,2013-06-27 16:51:00,
2013-06-27 10:06:00,71.6,64.0,30.05,SE,135,2.0,5.0,76,0.00,,,0.00,weatherlink.com 1.10,2013-06-27 17:06:00,
2013-06-27 10:21:00,72.4,64.0,30.06,SSE,159,2.0,4.0,74,0.00,,,0.00,weatherlink.com 1.10,2013-06-27 17:21:00,
2013-06-27 10:36:00,72.7,64.0,30.06,WNW,285,2.0,5.0,73,0.00,,,0.00,weatherlink.com 1.10,2013-06-27 17:36:00,
2013-06-27 10:51:00,73.5,64.0,30.06,West,260,6.0,6.0,71,0.00,,,0.00,weatherlink.com 1.10,2013-06-27 17:51:00,
2013-06-27 11:06:00,73.3,63.0,30.06,SSE,155,3.0,7.0,71,0.00,,,0.00,weatherlink.com 1.10,2013-06-27 18:06:00,
2013-06-27 11:21:00,73.9,64.0,30.06,SSE,155,4.0,7.0,70,0.00,,,0.00,weatherlink.com 1.10,2013-06-27 18:21:00,
2013-06-27 11:36:00,74.0,63.0,30.06,South,186,5.0,7.0,69,0.00,,,0.00,weatherlink.com 1.10,2013-06-27 18:36:00,
2013-06-27 11:51:00,74.0,63.0,30.05,SW,216,3.0,7.0,68,0.00,,,0.00,weatherlink.com 1.10,2013-06-27 18:51:00,
2013-06-27 12:06:00,74.1,62.0,30.06,WSW,238,2.0,8.0,67,0.00,,,0.00,weatherlink.com 1.10,2013-06-27 19:06:00,
2013-06-27 12:21:00,73.1,63.0,30.06,SSW,207,7.0,8.0,70,0.00,,,0.00,weatherlink.com 1.10,2013-06-27 19:21:00,
2013-06-27 12:36:00,73.5,63.0,30.05,SSW,204,6.0,8.0,69,0.00,,,0.00,weatherlink.com 1.10,2013-06-27 19:36:00,
2013-06-27 12:51:00,73.9,63.0,30.05,SSE,155,5.0,11.0,68,0.00,,,0.00,weatherlink.com 1.10,2013-06-27 19:51:00,
2013-06-27 13:06:00,75.3,63.0,30.05,SSE,160,3.0,9.0,66,0.00,,,0.00,weatherlink.com 1.10,2013-06-27 20:06:00,
2013-06-27 13:22:00,75.9,63.0,30.05,South,187,5.0,8.0,65,0.00,,,0.00,weatherlink.com 1.10,2013-06-27 20:22:00,
2013-06-27 13:52:00,77.3,63.0,30.04,SE,135,4.0,8.0,62,0.00,,,0.00,weatherlink.com 1.10,2013-06-27 20:52:00,
2013-06-27 14:07:00,77.2,63.0,30.04,SE,133,6.0,11.0,62,0.00,,,0.00,weatherlink.com 1.10,2013-06-27 21:07:00,
2013-06-27 14:22:00,77.7,64.0,30.03,SE,145,5.0,11.0,63,0.00,,,0.00,weatherlink.com 1.10,2013-06-27 21:22:00,
2013-06-27 15:07:00,77.5,63.0,30.02,SSE,155,8.0,9.0,61,0.00,,,0.00,weatherlink.com 1.10,2013-06-27 22:07:00,
2013-06-27 15:22:00,77.7,64.0,30.02,SSW,205,3.0,10.0,62,0.00,,,0.00,weatherlink.com 1.10,2013-06-27 22:22:00,
2013-06-27 15:37:00,78.4,64.0,30.02,East,94,5.0,11.0,61,0.00,,,0.00,weatherlink.com 1.10,2013-06-27 22:37:00,
2013-06-27 16:22:00,78.1,63.0,30.01,SW,216,4.0,11.0,60,0.00,,,0.00,weatherlink.com 1.10,2013-06-27 23:22:00,
2013-06-27 16:37:00,79.1,63.0,30.01,East,82,4.0,11.0,59,0.00,,,0.00,weatherlink.com 1.10,2013-06-27 23:37:00,
2013-06-27 16:52:00,79.8,64.0,30.01,SE,136,4.0,8.0,58,0.00,,,0.00,weatherlink.com 1.10,2013-06-27 23:52:00,
2013-06-27 17:07:00,80.3,64.0,30.00,SE,125,3.0,8.0,57,0.00,,,0.00,weatherlink.com 1.10,2013-06-28 00:07:00,
2013-06-27 17:22:00,79.7,64.0,30.00,WSW,242,3.0,8.0,58,0.00,,,0.00,weatherlink.com 1.10,2013-06-28 00:22:00,
2013-06-27 17:37:00,80.0,63.0,30.00,South,183,5.0,9.0,57,0.00,,,0.00,weatherlink.com 1.10,2013-06-28 00:37:00,
2013-06-27 18:07:00,78.4,63.0,29.99,SSE,148,8.0,9.0,59,0.00,,,0.00,weatherlink.com 1.10,2013-06-28 01:07:00,
2013-06-27 18:22:00,77.3,62.0,29.99,South,177,7.0,10.0,60,0.00,,,0.00,weatherlink.com 1.10,2013-06-28 01:22:00,
2013-06-27 18:37:00,75.8,61.0,29.99,South,177,4.0,11.0,61,0.00,,,0.00,weatherlink.com 1.10,2013-06-28 01:37:00,
2013-06-27 19:07:00,74.5,61.0,29.98,ESE,120,5.0,10.0,63,0.00,,,0.00,weatherlink.com 1.10,2013-06-28 02:07:00,
2013-06-27 19:22:00,74.9,61.0,29.98,SSE,167,5.0,9.0,62,0.00,,,0.00,weatherlink.com 1.10,2013-06-28 02:22:00,
2013-06-27 19:37:00,74.6,61.0,29.98,SSE,167,2.0,7.0,63,0.00,,,0.00,weatherlink.com 1.10,2013-06-28 02:37:00,
2013-06-27 20:22:00,73.0,60.0,29.99,South,174,2.0,4.0,65,0.00,,,0.00,weatherlink.com 1.10,2013-06-28 03:22:00,
2013-06-27 20:52:00,69.9,60.0,29.99,SSW,208,0.0,3.0,71,0.00,,,0.00,weatherlink.com 1.10,2013-06-28 03:52:00,
2013-06-27 21:07:00,67.9,59.0,30.00,SE,134,2.0,5.0,74,0.00,,,0.00,weatherlink.com 1.10,2013-06-28 04:07:00,
2013-06-27 21:22:00,66.9,59.0,30.00,SW,226,1.0,5.0,77,0.00,,,0.00,weatherlink.com 1.10,2013-06-28 04:22:00,
2013-06-27 21:37:00,65.8,59.0,30.00,ESE,105,2.0,3.0,79,0.00,,,0.00,weatherlink.com 1.10,2013-06-28 04:37:00,
2013-06-27 21:52:00,64.0,58.0,30.00,SSE,148,3.0,6.0,82,0.00,,,0.00,weatherlink.com 1.10,2013-06-28 04:52:00,
2013-06-27 22:07:00,63.2,58.0,30.01,ESE,118,1.0,5.0,84,0.00,,,0.00,weatherlink.com 1.10,2013-06-28 05:07:00,
2013-06-27 22:22:00,62.9,58.0,30.01,SW,217,2.0,5.0,85,0.00,,,0.00,weatherlink.com 1.10,2013-06-28 05:22:00,
2013-06-27 22:37:00,62.1,58.0,30.01,SSE,159,2.0,5.0,86,0.00,,,0.00,weatherlink.com 1.10,2013-06-28 05:37:00,
2013-06-27 22:52:00,61.6,58.0,30.01,South,186,4.0,6.0,87,0.00,,,0.00,weatherlink.com 1.10,2013-06-28 05:52:00,
2013-06-27 23:07:00,61.1,58.0,30.01,SSE,165,5.0,5.0,88,0.00,,,0.00,weatherlink.com 1.10,2013-06-28 06:07:00,
2013-06-27 23:22:00,60.6,57.0,30.01,SE,135,4.0,4.0,89,0.00,,,0.00,weatherlink.com 1.10,2013-06-28 06:22:00,
2013-06-27 23:37:00,60.7,58.0,30.01,SSW,210,2.0,6.0,90,0.00,,,0.00,weatherlink.com 1.10,2013-06-28 06:37:00,
2013-06-27 23:52:00,60.9,58.0,30.01,SSW,198,4.0,6.0,90,0.00,,,0.00,weatherlink.com 1.10,2013-06-28 06:52:00,